Location: Gro�sch�nbrunn
(49.5760°N, 11.8868°E)
Time: 14:33:36
(UTC+00:00)

Cosmos 1626 - Pass Details

Date: 18 September 2020
Orbit: 490 x 495 km, 82.5° (Epoch: 27 October)

Event Time Altitude Azimuth Distance (km) Brightness Sun altitude
Rises 20:12:51 0° 345° (NNW) 2,591 6.6 -26.9°
Reaches altitude 10° 20:15:01 10° 339° (NNW) 1,702 5.6 -27.1°
Enters shadow 20:17:27 34° 314° (NW) 840 3.7 -27.4°
